This demonstration page uses our WeatherBlox Daily Observations layout. Learn more.

Left ArrowRight Arrow

41.12389, -100.76542

Hourly Observations for March 9, 2019

Temp ( °F °C ) Dew Point ( °F °C ) Humidity (%) Winds ( mph kmh ) Pressure ( in mb ) Visibility ( mi km ) Precip ( " mm )
12:22 am 00:22 Cloudy with Mist and Fog 33 0.6 31 -0.6 92 92 ENE 5 7 29.64 1004 2 3 0.00 0.00
12:36 am 00:36 Cloudy with Light Freezing Rain 33 0.6 31 -0.6 92 92 E 7 11 29.64 1004 2 3 0.00 0.03
12:49 am 00:49 Cloudy with Light Freezing Rain 34 1 30 -1 87 87 ESE 13 20 29.60 1002 2 3 0.00 0.03
12:53 am 00:53 Cloudy with Light Freezing Rain 33 0.6 32 0 96 96 E 9 15 29.55 1001 2 3 0.01 0.25
1:04 am 01:04 Cloudy with Light Freezing Rain 33 0.6 31 -0.6 92 92 SE 15 24 29.59 1002 2 3 0.00 0.03
1:22 am 01:22 Cloudy with Mist and Fog 33 0.6 32 0 96 96 SE 13 20 29.58 1002 2 3 0.00 0.03
1:53 am 01:53 Cloudy with Mist and Fog 33 0.6 32 0 96 96 ESE 12 19 29.52 1000 2 3 0.01 0.25
2:53 am 02:53 Cloudy with Mist and Fog 33 0.6 32 0 96 96 ESE 9 15 29.49 999 3 5 0.00 0.00
3:05 am 03:05 Cloudy with Mist and Fog 33 0.6 32 0 96 96 ESE 8 13 29.54 1000 3 4 0.00 0.00
3:53 am 03:53 Cloudy with Mist and Fog 33 0.6 32 0 96 96 ESE 9 15 29.46 998 3 4 0.00 0.00
4:07 am 04:07 Cloudy with Mist and Fog 33 0.6 32 0 96 96 E 8 13 29.50 999 3 5 0.00 0.00
4:53 am 04:53 Cloudy with Mist and Fog 33 0.6 32 0 96 96 Calm 29.46 998 5 8 0.00 0.00
5:53 am 05:53 Cloudy 34 1.1 32 0 92 92 NNW 6 9 29.48 998 10 16 0.00 0.00
6:53 am 06:53 Cloudy 33 0.6 31 -0.6 92 92 N 10 17 29.51 999 10 16 0.00 0.00
7:53 am 07:53 Cloudy 33 0.6 31 -0.6 92 92 N 17 28 29.53 1000 10 16 0.00 0.00
8:22 am 08:22 Cloudy 33 0.6 30 -1.1 89 89 NNW 15 24 29.60 1002 10 16 0.00 0.00
8:37 am 08:37 Cloudy 34 1.1 29 -1.7 82 82 NNW 20 31 29.61 1003 10 16 0.00 0.00
8:48 am 08:48 Cloudy 34 1 28 -2 81 81 NNW 18 30 29.61 1003 10 16 0.00 0.00
8:53 am 08:53 Cloudy 34 1.1 29 -1.7 82 82 NNW 24 39 29.58 1002 10 16 0.00 0.00
9:53 am 09:53 Cloudy 30 -1.1 24 -4.4 79 79 NNW 30 48 29.66 1004 10 16 0.00 0.00
10:53 am 10:53 Cloudy 30 -1.1 23 -5 75 75 NNW 30 48 29.67 1005 10 16 0.00 0.00
11:53 am 11:53 Cloudy 31 -0.6 23 -5 72 72 NNW 29 46 29.71 1006 10 16 0.00 0.00
12:53 pm 12:53 Cloudy 31 -0.6 22 -5.6 69 69 NNW 32 52 29.76 1008 10 16 0.00 0.00
1:53 pm 13:53 Cloudy 32 0 23 -5 69 69 NNW 33 54 29.77 1008 10 16 0.00 0.00
2:53 pm 14:53 Cloudy 33 0.6 23 -5 66 66 NNW 37 59 29.80 1009 10 16 0.00 0.00
3:13 pm 15:13 Cloudy 33 0.6 23 -5 66 66 N 32 52 29.84 1010 10 16 0.00 0.00
3:53 pm 15:53 Mostly Cloudy 34 1.1 23 -5 64 64 NNW 35 56 29.83 1010 10 16 0.00 0.00
4:53 pm 16:53 Mostly Sunny 34 1.1 22 -5.6 61 61 NNW 31 50 29.86 1011 10 16 0.00 0.00
5:53 pm 17:53 Sunny 33 0.6 22 -5.6 64 64 NNW 21 33 29.89 1012 10 16 0.00 0.00
6:53 pm 18:53 Clear 30 -1.1 22 -5.6 72 72 N 17 28 29.96 1015 10 16 0.00 0.00
7:53 pm 19:53 Clear 27 -2.8 20 -6.7 75 75 NNW 13 20 29.99 1016 10 16 0.00 0.00
8:53 pm 20:53 Clear 26 -3.3 19 -7.2 75 75 NNW 10 17 30.00 1016 10 16 0.00 0.00
9:53 pm 21:53 Clear 22 -5.6 16 -8.9 78 78 W 7 11 30.06 1018 10 16 0.00 0.00
10:53 pm 22:53 Clear 20 -6.7 13 -10.6 74 74 NNW 9 15 30.08 1019 10 16 0.00 0.00
11:53 pm 23:53 Clear 19 -7.2 12 -11.1 74 74 NW 8 13 30.09 1019 10 16 0.00 0.00

Powered by AerisWeather